owner,sensor,date,latitude,longitude,vertical_datum,sea_water_temperature,qcFlag 
SCCF RECON,ioos:station:SCCF:11:1,2013-04-01T00:00:00Z,26.4679,-82.0631,1.74,21.45,2 
SCCF RECON,ioos:station:SCCF:11:1,2013-04-01T01:00:00Z,26.4679,-82.0631,1.74,21.37,2 
SCCF RECON,ioos:station:SCCF:11:1,2013-04-01T02:00:00Z,26.4679,-82.0631,1.74,21.35,2 
SCCF RECON,ioos:station:SCCF:11:1,2013-04-01T03:00:00Z,26.4679,-82.0631,1.74,21.5,2 
SCCF RECON,ioos:station:SCCF:11:1,2013-04-01T04:00:00Z,26.4679,-82.0631,1.74,21.48,2 
SCCF RECON,ioos:station:SCCF:11:1,2013-04-01T05:00:00Z,26.4679,-82.0631,1.74,21.01,2 
SCCF RECON,ioos:station:SCCF:11:1,2013-04-01T06:00:00Z,26.4679,-82.0631,1.74,20.86,2 
SCCF RECON,ioos:station:SCCF:11:1,2013-04-01T07:00:00Z,26.4679,-82.0631,1.74,20.53,2 
SCCF RECON,ioos:station:SCCF:11:1,2013-04-01T08:00:00Z,26.4679,-82.0631,1.74,20.59,2 
SCCF RECON,ioos:station:SCCF:11:1,2013-04-01T09:00:00Z,26.4679,-82.0631,1.74,20.63,2 
SCCF RECON,ioos:station:SCCF:11:1,2013-04-01T10:00:00Z,26.4679,-82.0631,1.74,20.38,2 
SCCF RECON,ioos:station:SCCF:11:1,2013-04-01T11:00:00Z,26.4679,-82.0631,1.74,20.29,2 
SCCF RECON,ioos:station:SCCF:11:1,2013-04-01T12:00:00Z,26.4679,-82.0631,1.74,20.42,2 
SCCF RECON,ioos:station:SCCF:11:1,2013-04-01T13:00:00Z,26.4679,-82.0631,1.74,20.55,2 
SCCF RECON,ioos:station:SCCF:11:1,2013-04-01T14:00:00Z,26.4679,-82.0631,1.74,20.68,2 
SCCF RECON,ioos:station:SCCF:11:1,2013-04-01T15:00:00Z,26.4679,-82.0631,1.74,20.98,2 
SCCF RECON,ioos:station:SCCF:11:1,2013-04-01T16:00:00Z,26.4679,-82.0631,1.74,21.33,2 
SCCF RECON,ioos:station:SCCF:11:1,2013-04-01T17:00:00Z,26.4679,-82.0631,1.74,21.66,2 
SCCF RECON,ioos:station:SCCF:11:1,2013-04-01T18:00:00Z,26.4679,-82.0631,1.74,22.03,2 
SCCF RECON,ioos:station:SCCF:11:1,2013-04-01T19:00:00Z,26.4679,-82.0631,1.74,21.96,2 
SCCF RECON,ioos:station:SCCF:11:1,2013-04-01T20:00:00Z,26.4679,-82.0631,1.74,21.49,2 
SCCF RECON,ioos:station:SCCF:11:1,2013-04-01T21:00:00Z,26.4679,-82.0631,1.74,21.97,2 
SCCF RECON,ioos:station:SCCF:11:1,2013-04-01T22:00:00Z,26.4679,-82.0631,1.74,22.61,2 
SCCF RECON,ioos:station:SCCF:11:1,2013-04-01T23:00:00Z,26.4679,-82.0631,1.74,23.1,2 
SCCF RECON,ioos:station:SCCF:11:1,2013-04-02T00:00:00Z,26.4679,-82.0631,1.74,23.26,2 
SCCF RECON,ioos:station:SCCF:11:1,2013-04-02T01:00:00Z,26.4679,-82.0631,1.74,23.34,2 
SCCF RECON,ioos:station:SCCF:11:1,2013-04-02T02:00:00Z,26.4679,-82.0631,1.74,23.21,2 
SCCF RECON,ioos:station:SCCF:11:1,2013-04-02T03:00:00Z,26.4679,-82.0631,1.74,23.24,2 
SCCF RECON,ioos:station:SCCF:11:1,2013-04-02T04:00:00Z,26.4679,-82.0631,1.74,23.2,2 
SCCF RECON,ioos:station:SCCF:11:1,2013-04-02T05:00:00Z,26.4679,-82.0631,1.74,23.11,2 
SCCF RECON,ioos:station:SCCF:11:1,2013-04-02T06:00:00Z,26.4679,-82.0631,1.74,22.99,2 
SCCF RECON,ioos:station:SCCF:11:1,2013-04-02T07:00:00Z,26.4679,-82.0631,1.74,22.78,2 
SCCF RECON,ioos:station:SCCF:11:1,2013-04-02T08:00:00Z,26.4679,-82.0631,1.74,22.76,2 
SCCF RECON,ioos:station:SCCF:11:1,2013-04-02T09:00:00Z,26.4679,-82.0631,1.74,22.4,2 
SCCF RECON,ioos:station:SCCF:11:1,2013-04-02T10:00:00Z,26.4679,-82.0631,1.74,22.32,2 
SCCF RECON,ioos:station:SCCF:11:1,2013-04-02T11:00:00Z,26.4679,-82.0631,1.74,22.44,2 
SCCF RECON,ioos:station:SCCF:11:1,2013-04-02T12:00:00Z,26.4679,-82.0631,1.74,22.36,2 
SCCF RECON,ioos:station:SCCF:11:1,2013-04-02T13:00:00Z,26.4679,-82.0631,1.74,22.24,2 
SCCF RECON,ioos:station:SCCF:11:1,2013-04-02T14:00:00Z,26.4679,-82.0631,1.74,22.3,2 
SCCF RECON,ioos:station:SCCF:11:1,2013-04-02T15:00:00Z,26.4679,-82.0631,1.74,22.53,2 
SCCF RECON,ioos:station:SCCF:11:1,2013-04-02T16:00:00Z,26.4679,-82.0631,1.74,22.79,2 
SCCF RECON,ioos:station:SCCF:11:1,2013-04-02T17:00:00Z,26.4679,-82.0631,1.74,23.25,2 
SCCF RECON,ioos:station:SCCF:11:1,2013-04-02T18:00:00Z,26.4679,-82.0631,1.74,23.47,2 
SCCF RECON,ioos:station:SCCF:11:1,2013-04-02T19:00:00Z,26.4679,-82.0631,1.74,23.86,2 
SCCF RECON,ioos:station:SCCF:11:1,2013-04-02T20:00:00Z,26.4679,-82.0631,1.74,23.43,2 
SCCF RECON,ioos:station:SCCF:11:1,2013-04-02T21:00:00Z,26.4679,-82.0631,1.74,23.97,2 
SCCF RECON,ioos:station:SCCF:11:1,2013-04-02T22:00:00Z,26.4679,-82.0631,1.74,24.06,2 
SCCF RECON,ioos:station:SCCF:11:1,2013-04-02T23:00:00Z,26.4679,-82.0631,1.74,23.93,2 
SCCF RECON,ioos:station:SCCF:11:1,2013-04-03T00:00:00Z,26.4679,-82.0631,1.74,23.93,2 
SCCF RECON,ioos:station:SCCF:11:1,2013-04-03T01:00:00Z,26.4679,-82.0631,1.74,24.05,2 
SCCF RECON,ioos:station:SCCF:11:1,2013-04-03T02:00:00Z,26.4679,-82.0631,1.74,24.25,2 
SCCF RECON,ioos:station:SCCF:11:1,2013-04-03T03:00:00Z,26.4679,-82.0631,1.74,24.2,2 
SCCF RECON,ioos:station:SCCF:11:1,2013-04-03T04:00:00Z,26.4679,-82.0631,1.74,24.09,2 
SCCF RECON,ioos:station:SCCF:11:1,2013-04-03T05:00:00Z,26.4679,-82.0631,1.74,24.13,2 
SCCF RECON,ioos:station:SCCF:11:1,2013-04-03T06:00:00Z,26.4679,-82.0631,1.74,24.15,2 
SCCF RECON,ioos:station:SCCF:11:1,2013-04-03T07:00:00Z,26.4679,-82.0631,1.74,23.94,2 
SCCF RECON,ioos:station:SCCF:11:1,2013-04-03T08:00:00Z,26.4679,-82.0631,1.74,23.47,2 
SCCF RECON,ioos:station:SCCF:11:1,2013-04-03T09:00:00Z,26.4679,-82.0631,1.74,23.28,2 
SCCF RECON,ioos:station:SCCF:11:1,2013-04-03T10:00:00Z,26.4679,-82.0631,1.74,23.23,2 
SCCF RECON,ioos:station:SCCF:11:1,2013-04-03T11:00:00Z,26.4679,-82.0631,1.74,23.21,2 
SCCF RECON,ioos:station:SCCF:11:1,2013-04-03T12:00:00Z,26.4679,-82.0631,1.74,23.09,2 
SCCF RECON,ioos:station:SCCF:11:1,2013-04-03T13:00:00Z,26.4679,-82.0631,1.74,23.29,2 
SCCF RECON,ioos:station:SCCF:11:1,2013-04-03T14:00:00Z,26.4679,-82.0631,1.74,23.4,2 
SCCF RECON,ioos:station:SCCF:11:1,2013-04-03T15:00:00Z,26.4679,-82.0631,1.74,23.54,2 
SCCF RECON,ioos:station:SCCF:11:1,2013-04-03T16:00:00Z,26.4679,-82.0631,1.74,23.59,2 
SCCF RECON,ioos:station:SCCF:11:1,2013-04-03T17:00:00Z,26.4679,-82.0631,1.74,23.92,2 
SCCF RECON,ioos:station:SCCF:11:1,2013-04-03T18:00:00Z,26.4679,-82.0631,1.74,24.35,2 
SCCF RECON,ioos:station:SCCF:11:1,2013-04-03T19:00:00Z,26.4679,-82.0631,1.74,23.08,2 
SCCF RECON,ioos:station:SCCF:11:1,2013-04-03T20:00:00Z,26.4679,-82.0631,1.74,23.04,2 
SCCF RECON,ioos:station:SCCF:11:1,2013-04-03T21:00:00Z,26.4679,-82.0631,1.74,22.92,2 
SCCF RECON,ioos:station:SCCF:11:1,2013-04-03T22:00:00Z,26.4679,-82.0631,1.74,22.67,2 
SCCF RECON,ioos:station:SCCF:11:1,2013-04-03T23:00:00Z,26.4679,-82.0631,1.74,22.41,2 
SCCF RECON,ioos:station:SCCF:11:1,2013-04-04T00:00:00Z,26.4679,-82.0631,1.74,22.47,2 
SCCF RECON,ioos:station:SCCF:11:1,2013-04-04T01:00:00Z,26.4679,-82.0631,1.74,22.41,2 
SCCF RECON,ioos:station:SCCF:11:1,2013-04-04T02:00:00Z,26.4679,-82.0631,1.74,22.79,2 
SCCF RECON,ioos:station:SCCF:11:1,2013-04-04T03:00:00Z,26.4679,-82.0631,1.74,24.21,2 
SCCF RECON,ioos:station:SCCF:11:1,2013-04-04T04:00:00Z,26.4679,-82.0631,1.74,24.12,2 
SCCF RECON,ioos:station:SCCF:11:1,2013-04-04T05:00:00Z,26.4679,-82.0631,1.74,23.91,2 
SCCF RECON,ioos:station:SCCF:11:1,2013-04-04T06:00:00Z,26.4679,-82.0631,1.74,24.06,2 
SCCF RECON,ioos:station:SCCF:11:1,2013-04-04T07:00:00Z,26.4679,-82.0631,1.74,24.34,2 
SCCF RECON,ioos:station:SCCF:11:1,2013-04-04T08:00:00Z,26.4679,-82.0631,1.74,23.61,2 
SCCF RECON,ioos:station:SCCF:11:1,2013-04-04T09:00:00Z,26.4679,-82.0631,1.74,23.26,2 
SCCF RECON,ioos:station:SCCF:11:1,2013-04-04T10:00:00Z,26.4679,-82.0631,1.74,22.78,2 
SCCF RECON,ioos:station:SCCF:11:1,2013-04-04T11:00:00Z,26.4679,-82.0631,1.74,22.7,2 
SCCF RECON,ioos:station:SCCF:11:1,2013-04-04T12:00:00Z,26.4679,-82.0631,1.74,22.68,2 
SCCF RECON,ioos:station:SCCF:11:1,2013-04-04T13:00:00Z,26.4679,-82.0631,1.74,22.69,2 
SCCF RECON,ioos:station:SCCF:11:1,2013-04-04T14:00:00Z,26.4679,-82.0631,1.74,22.74,2 
SCCF RECON,ioos:station:SCCF:11:1,2013-04-04T15:00:00Z,26.4679,-82.0631,1.74,22.94,2 
SCCF RECON,ioos:station:SCCF:11:1,2013-04-04T16:00:00Z,26.4679,-82.0631,1.74,22.87,2 
SCCF RECON,ioos:station:SCCF:11:1,2013-04-04T17:00:00Z,26.4679,-82.0631,1.74,22.92,2 
SCCF RECON,ioos:station:SCCF:11:1,2013-04-04T18:00:00Z,26.4679,-82.0631,1.74,23.22,2 
SCCF RECON,ioos:station:SCCF:11:1,2013-04-04T19:00:00Z,26.4679,-82.0631,1.74,23.4,2 
SCCF RECON,ioos:station:SCCF:11:1,2013-04-04T20:00:00Z,26.4679,-82.0631,1.74,23.27,2 
SCCF RECON,ioos:station:SCCF:11:1,2013-04-04T21:00:00Z,26.4679,-82.0631,1.74,23.4,2 
SCCF RECON,ioos:station:SCCF:11:1,2013-04-04T22:00:00Z,26.4679,-82.0631,1.74,23.39,2 
SCCF RECON,ioos:station:SCCF:11:1,2013-04-04T23:00:00Z,26.4679,-82.0631,1.74,23.15,2 
SCCF RECON,ioos:station:SCCF:11:1,2013-04-05T00:00:00Z,26.4679,-82.0631,1.74,22.87,2 
SCCF RECON,ioos:station:SCCF:11:1,2013-04-05T01:00:00Z,26.4679,-82.0631,1.74,22.76,2 
SCCF RECON,ioos:station:SCCF:11:1,2013-04-05T02:00:00Z,26.4679,-82.0631,1.74,22.76,2 
SCCF RECON,ioos:station:SCCF:11:1,2013-04-05T03:00:00Z,26.4679,-82.0631,1.74,22.66,2 
SCCF RECON,ioos:station:SCCF:11:1,2013-04-05T04:00:00Z,26.4679,-82.0631,1.74,22.8,2 
SCCF RECON,ioos:station:SCCF:11:1,2013-04-05T05:00:00Z,26.4679,-82.0631,1.74,22.91,2 
SCCF RECON,ioos:station:SCCF:11:1,2013-04-05T06:00:00Z,26.4679,-82.0631,1.74,22.9,2 
SCCF RECON,ioos:station:SCCF:11:1,2013-04-05T07:00:00Z,26.4679,-82.0631,1.74,22.97,2 
SCCF RECON,ioos:station:SCCF:11:1,2013-04-05T08:00:00Z,26.4679,-82.0631,1.74,22.97,2 
SCCF RECON,ioos:station:SCCF:11:1,2013-04-05T09:00:00Z,26.4679,-82.0631,1.74,22.59,2 
SCCF RECON,ioos:station:SCCF:11:1,2013-04-05T10:00:00Z,26.4679,-82.0631,1.74,22.33,2 
SCCF RECON,ioos:station:SCCF:11:1,2013-04-05T11:00:00Z,26.4679,-82.0631,1.74,22.35,2 
SCCF RECON,ioos:station:SCCF:11:1,2013-04-05T12:00:00Z,26.4679,-82.0631,1.74,22.1,2 
SCCF RECON,ioos:station:SCCF:11:1,2013-04-05T13:00:00Z,26.4679,-82.0631,1.74,22.24,2 
SCCF RECON,ioos:station:SCCF:11:1,2013-04-05T14:00:00Z,26.4679,-82.0631,1.74,22.03,2 
SCCF RECON,ioos:station:SCCF:11:1,2013-04-05T15:00:00Z,26.4679,-82.0631,1.74,21.99,2 
SCCF RECON,ioos:station:SCCF:11:1,2013-04-05T16:00:00Z,26.4679,-82.0631,1.74,22.05,2 
SCCF RECON,ioos:station:SCCF:11:1,2013-04-05T17:00:00Z,26.4679,-82.0631,1.74,22.12,2 
SCCF RECON,ioos:station:SCCF:11:1,2013-04-05T18:00:00Z,26.4679,-82.0631,1.74,22.24,2 
SCCF RECON,ioos:station:SCCF:11:1,2013-04-05T19:00:00Z,26.4679,-82.0631,1.74,22.32,2 
SCCF RECON,ioos:station:SCCF:11:1,2013-04-05T20:00:00Z,26.4679,-82.0631,1.74,22.44,2 
SCCF RECON,ioos:station:SCCF:11:1,2013-04-05T21:00:00Z,26.4679,-82.0631,1.74,22.39,2 
SCCF RECON,ioos:station:SCCF:11:1,2013-04-05T22:00:00Z,26.4679,-82.0631,1.74,22.42,2 
SCCF RECON,ioos:station:SCCF:11:1,2013-04-05T23:00:00Z,26.4679,-82.0631,1.74,22.4,2 
SCCF RECON,ioos:station:SCCF:11:1,2013-04-06T00:00:00Z,26.4679,-82.0631,1.74,22.26,2 
SCCF RECON,ioos:station:SCCF:11:1,2013-04-06T01:00:00Z,26.4679,-82.0631,1.74,22.04,2 
SCCF RECON,ioos:station:SCCF:11:1,2013-04-06T02:00:00Z,26.4679,-82.0631,1.74,21.92,2 
SCCF RECON,ioos:station:SCCF:11:1,2013-04-06T03:00:00Z,26.4679,-82.0631,1.74,21.72,2 
SCCF RECON,ioos:station:SCCF:11:1,2013-04-06T04:00:00Z,26.4679,-82.0631,1.74,21.55,2 
SCCF RECON,ioos:station:SCCF:11:1,2013-04-06T05:00:00Z,26.4679,-82.0631,1.74,21.44,2 
SCCF RECON,ioos:station:SCCF:11:1,2013-04-06T06:00:00Z,26.4679,-82.0631,1.74,21.28,2 
SCCF RECON,ioos:station:SCCF:11:1,2013-04-06T07:00:00Z,26.4679,-82.0631,1.74,21.21,2 
SCCF RECON,ioos:station:SCCF:11:1,2013-04-06T08:00:00Z,26.4679,-82.0631,1.74,21.11,2 
SCCF RECON,ioos:station:SCCF:11:1,2013-04-06T09:00:00Z,26.4679,-82.0631,1.74,20.9,2 
SCCF RECON,ioos:station:SCCF:11:1,2013-04-06T10:00:00Z,26.4679,-82.0631,1.74,20.83,2 
SCCF RECON,ioos:station:SCCF:11:1,2013-04-06T11:00:00Z,26.4679,-82.0631,1.74,20.63,2 
SCCF RECON,ioos:station:SCCF:11:1,2013-04-06T12:00:00Z,26.4679,-82.0631,1.74,20.46,2 
SCCF RECON,ioos:station:SCCF:11:1,2013-04-06T13:00:00Z,26.4679,-82.0631,1.74,20.56,2 
SCCF RECON,ioos:station:SCCF:11:1,2013-04-06T14:00:00Z,26.4679,-82.0631,1.74,20.84,2 
SCCF RECON,ioos:station:SCCF:11:1,2013-04-06T15:00:00Z,26.4679,-82.0631,1.74,21.0,2 
SCCF RECON,ioos:station:SCCF:11:1,2013-04-06T16:00:00Z,26.4679,-82.0631,1.74,21.33,2 
SCCF RECON,ioos:station:SCCF:11:1,2013-04-06T17:00:00Z,26.4679,-82.0631,1.74,21.57,2 
SCCF RECON,ioos:station:SCCF:11:1,2013-04-06T18:00:00Z,26.4679,-82.0631,1.74,21.9,2 
SCCF RECON,ioos:station:SCCF:11:1,2013-04-06T19:00:00Z,26.4679,-82.0631,1.74,22.44,2 
SCCF RECON,ioos:station:SCCF:11:1,2013-04-06T20:00:00Z,26.4679,-82.0631,1.74,22.78,2 
SCCF RECON,ioos:station:SCCF:11:1,2013-04-06T21:00:00Z,26.4679,-82.0631,1.74,23.08,2 
SCCF RECON,ioos:station:SCCF:11:1,2013-04-06T22:00:00Z,26.4679,-82.0631,1.74,23.08,2 
SCCF RECON,ioos:station:SCCF:11:1,2013-04-06T23:00:00Z,26.4679,-82.0631,1.74,22.91,2 
SCCF RECON,ioos:station:SCCF:11:1,2013-04-07T00:00:00Z,26.4679,-82.0631,1.74,22.71,2 
SCCF RECON,ioos:station:SCCF:11:1,2013-04-07T01:00:00Z,26.4679,-82.0631,1.74,22.73,2 
SCCF RECON,ioos:station:SCCF:11:1,2013-04-07T02:00:00Z,26.4679,-82.0631,1.74,22.64,2 
SCCF RECON,ioos:station:SCCF:11:1,2013-04-07T03:00:00Z,26.4679,-82.0631,1.74,22.47,2 
SCCF RECON,ioos:station:SCCF:11:1,2013-04-07T04:00:00Z,26.4679,-82.0631,1.74,22.19,2 
SCCF RECON,ioos:station:SCCF:11:1,2013-04-07T05:00:00Z,26.4679,-82.0631,1.74,22.4,2 
SCCF RECON,ioos:station:SCCF:11:1,2013-04-07T06:00:00Z,26.4679,-82.0631,1.74,22.09,2 
SCCF RECON,ioos:station:SCCF:11:1,2013-04-07T07:00:00Z,26.4679,-82.0631,1.74,21.93,2 
SCCF RECON,ioos:station:SCCF:11:1,2013-04-07T08:00:00Z,26.4679,-82.0631,1.74,21.88,2 
SCCF RECON,ioos:station:SCCF:11:1,2013-04-07T09:00:00Z,26.4679,-82.0631,1.74,21.81,2 
SCCF RECON,ioos:station:SCCF:11:1,2013-04-07T10:00:00Z,26.4679,-82.0631,1.74,21.68,2 
SCCF RECON,ioos:station:SCCF:11:1,2013-04-07T11:00:00Z,26.4679,-82.0631,1.74,21.54,2 
SCCF RECON,ioos:station:SCCF:11:1,2013-04-07T12:00:00Z,26.4679,-82.0631,1.74,21.41,2 
SCCF RECON,ioos:station:SCCF:11:1,2013-04-07T13:00:00Z,26.4679,-82.0631,1.74,21.5,2 
SCCF RECON,ioos:station:SCCF:11:1,2013-04-07T14:00:00Z,26.4679,-82.0631,1.74,21.61,2 
SCCF RECON,ioos:station:SCCF:11:1,2013-04-07T15:00:00Z,26.4679,-82.0631,1.74,21.8,2 
SCCF RECON,ioos:station:SCCF:11:1,2013-04-07T16:00:00Z,26.4679,-82.0631,1.74,22.02,2 
SCCF RECON,ioos:station:SCCF:11:1,2013-04-07T17:00:00Z,26.4679,-82.0631,1.74,22.11,2 
SCCF RECON,ioos:station:SCCF:11:1,2013-04-07T18:00:00Z,26.4679,-82.0631,1.74,22.39,2 
SCCF RECON,ioos:station:SCCF:11:1,2013-04-07T19:00:00Z,26.4679,-82.0631,1.74,22.94,2 
SCCF RECON,ioos:station:SCCF:11:1,2013-04-07T20:00:00Z,26.4679,-82.0631,1.74,23.58,2 
SCCF RECON,ioos:station:SCCF:11:1,2013-04-07T21:00:00Z,26.4679,-82.0631,1.74,23.78,2 
SCCF RECON,ioos:station:SCCF:11:1,2013-04-07T22:00:00Z,26.4679,-82.0631,1.74,24.33,2 
SCCF RECON,ioos:station:SCCF:11:1,2013-04-07T23:00:00Z,26.4679,-82.0631,1.74,24.35,2 
SCCF RECON,ioos:station:SCCF:11:1,2013-04-08T00:00:00Z,26.4679,-82.0631,1.74,24.17,2 
SCCF RECON,ioos:station:SCCF:11:1,2013-04-08T01:00:00Z,26.4679,-82.0631,1.74,23.82,2 
SCCF RECON,ioos:station:SCCF:11:1,2013-04-08T02:00:00Z,26.4679,-82.0631,1.74,23.31,2 
SCCF RECON,ioos:station:SCCF:11:1,2013-04-08T03:00:00Z,26.4679,-82.0631,1.74,23.2,2 
SCCF RECON,ioos:station:SCCF:11:1,2013-04-08T04:00:00Z,26.4679,-82.0631,1.74,23.02,2 
SCCF RECON,ioos:station:SCCF:11:1,2013-04-08T05:00:00Z,26.4679,-82.0631,1.74,22.81,2 
SCCF RECON,ioos:station:SCCF:11:1,2013-04-08T06:00:00Z,26.4679,-82.0631,1.74,22.86,2 
SCCF RECON,ioos:station:SCCF:11:1,2013-04-08T07:00:00Z,26.4679,-82.0631,1.74,23.03,2 
SCCF RECON,ioos:station:SCCF:11:1,2013-04-08T08:00:00Z,26.4679,-82.0631,1.74,23.1,2 
SCCF RECON,ioos:station:SCCF:11:1,2013-04-08T09:00:00Z,26.4679,-82.0631,1.74,23.09,2 
SCCF RECON,ioos:station:SCCF:11:1,2013-04-08T10:00:00Z,26.4679,-82.0631,1.74,23.08,2 
SCCF RECON,ioos:station:SCCF:11:1,2013-04-08T11:00:00Z,26.4679,-82.0631,1.74,22.99,2 
SCCF RECON,ioos:station:SCCF:11:1,2013-04-08T12:00:00Z,26.4679,-82.0631,1.74,22.81,2 
SCCF RECON,ioos:station:SCCF:11:1,2013-04-08T13:00:00Z,26.4679,-82.0631,1.74,22.3,2 
SCCF RECON,ioos:station:SCCF:11:1,2013-04-08T14:00:00Z,26.4679,-82.0631,1.74,22.48,2 
SCCF RECON,ioos:station:SCCF:11:1,2013-04-08T15:00:00Z,26.4679,-82.0631,1.74,22.78,2 
SCCF RECON,ioos:station:SCCF:11:1,2013-04-08T16:00:00Z,26.4679,-82.0631,1.74,23.05,2 
SCCF RECON,ioos:station:SCCF:11:1,2013-04-08T17:00:00Z,26.4679,-82.0631,1.74,22.63,2 
SCCF RECON,ioos:station:SCCF:11:1,2013-04-08T18:00:00Z,26.4679,-82.0631,1.74,22.83,2 
SCCF RECON,ioos:station:SCCF:11:1,2013-04-08T19:00:00Z,26.4679,-82.0631,1.74,23.63,2 
SCCF RECON,ioos:station:SCCF:11:1,2013-04-08T20:00:00Z,26.4679,-82.0631,1.74,24.63,2 
SCCF RECON,ioos:station:SCCF:11:1,2013-04-08T21:00:00Z,26.4679,-82.0631,1.74,24.9,2 
SCCF RECON,ioos:station:SCCF:11:1,2013-04-08T22:00:00Z,26.4679,-82.0631,1.74,25.22,2 
SCCF RECON,ioos:station:SCCF:11:1,2013-04-08T23:00:00Z,26.4679,-82.0631,1.74,25.33,2 
SCCF RECON,ioos:station:SCCF:11:1,2013-04-09T00:00:00Z,26.4679,-82.0631,1.74,25.18,2 
SCCF RECON,ioos:station:SCCF:11:1,2013-04-09T01:00:00Z,26.4679,-82.0631,1.74,25.05,2 
SCCF RECON,ioos:station:SCCF:11:1,2013-04-09T02:00:00Z,26.4679,-82.0631,1.74,24.66,2 
SCCF RECON,ioos:station:SCCF:11:1,2013-04-09T03:00:00Z,26.4679,-82.0631,1.74,24.46,2 
SCCF RECON,ioos:station:SCCF:11:1,2013-04-09T04:00:00Z,26.4679,-82.0631,1.74,23.94,2 
SCCF RECON,ioos:station:SCCF:11:1,2013-04-09T05:00:00Z,26.4679,-82.0631,1.74,23.75,2 
SCCF RECON,ioos:station:SCCF:11:1,2013-04-09T06:00:00Z,26.4679,-82.0631,1.74,23.56,2 
SCCF RECON,ioos:station:SCCF:11:1,2013-04-09T07:00:00Z,26.4679,-82.0631,1.74,23.66,2 
SCCF RECON,ioos:station:SCCF:11:1,2013-04-09T08:00:00Z,26.4679,-82.0631,1.74,23.67,2 
SCCF RECON,ioos:station:SCCF:11:1,2013-04-09T09:00:00Z,26.4679,-82.0631,1.74,23.72,2 
SCCF RECON,ioos:station:SCCF:11:1,2013-04-09T10:00:00Z,26.4679,-82.0631,1.74,23.66,2 
SCCF RECON,ioos:station:SCCF:11:1,2013-04-09T11:00:00Z,26.4679,-82.0631,1.74,23.64,2 
SCCF RECON,ioos:station:SCCF:11:1,2013-04-09T12:00:00Z,26.4679,-82.0631,1.74,23.53,2 
SCCF RECON,ioos:station:SCCF:11:1,2013-04-09T13:00:00Z,26.4679,-82.0631,1.74,23.16,2 
SCCF RECON,ioos:station:SCCF:11:1,2013-04-09T14:00:00Z,26.4679,-82.0631,1.74,23.39,2 
SCCF RECON,ioos:station:SCCF:11:1,2013-04-09T15:00:00Z,26.4679,-82.0631,1.74,23.57,2 
SCCF RECON,ioos:station:SCCF:11:1,2013-04-09T16:00:00Z,26.4679,-82.0631,1.74,23.56,2 
SCCF RECON,ioos:station:SCCF:11:1,2013-04-09T17:00:00Z,26.4679,-82.0631,1.74,23.59,2 
SCCF RECON,ioos:station:SCCF:11:1,2013-04-09T18:00:00Z,26.4679,-82.0631,1.74,23.66,2 
SCCF RECON,ioos:station:SCCF:11:1,2013-04-09T19:00:00Z,26.4679,-82.0631,1.74,24.76,2 
SCCF RECON,ioos:station:SCCF:11:1,2013-04-09T20:00:00Z,26.4679,-82.0631,1.74,25.23,2 
SCCF RECON,ioos:station:SCCF:11:1,2013-04-09T21:00:00Z,26.4679,-82.0631,1.74,25.66,2 
SCCF RECON,ioos:station:SCCF:11:1,2013-04-09T22:00:00Z,26.4679,-82.0631,1.74,25.83,2 
SCCF RECON,ioos:station:SCCF:11:1,2013-04-09T23:00:00Z,26.4679,-82.0631,1.74,25.85,2 
SCCF RECON,ioos:station:SCCF:11:1,2013-04-10T00:00:00Z,26.4679,-82.0631,1.74,25.75,2 
SCCF RECON,ioos:station:SCCF:11:1,2013-04-10T01:00:00Z,26.4679,-82.0631,1.74,25.58,2 
SCCF RECON,ioos:station:SCCF:11:1,2013-04-10T02:00:00Z,26.4679,-82.0631,1.74,25.39,2 
SCCF RECON,ioos:station:SCCF:11:1,2013-04-10T03:00:00Z,26.4679,-82.0631,1.74,24.99,2 
SCCF RECON,ioos:station:SCCF:11:1,2013-04-10T04:00:00Z,26.4679,-82.0631,1.74,24.55,2 
SCCF RECON,ioos:station:SCCF:11:1,2013-04-10T05:00:00Z,26.4679,-82.0631,1.74,24.26,2 
SCCF RECON,ioos:station:SCCF:11:1,2013-04-10T06:00:00Z,26.4679,-82.0631,1.74,24.01,2 
SCCF RECON,ioos:station:SCCF:11:1,2013-04-10T07:00:00Z,26.4679,-82.0631,1.74,23.98,2 
SCCF RECON,ioos:station:SCCF:11:1,2013-04-10T08:00:00Z,26.4679,-82.0631,1.74,24.17,2 
SCCF RECON,ioos:station:SCCF:11:1,2013-04-10T09:00:00Z,26.4679,-82.0631,1.74,24.29,2 
SCCF RECON,ioos:station:SCCF:11:1,2013-04-10T10:00:00Z,26.4679,-82.0631,1.74,24.33,2 
SCCF RECON,ioos:station:SCCF:11:1,2013-04-10T11:00:00Z,26.4679,-82.0631,1.74,24.22,2 
SCCF RECON,ioos:station:SCCF:11:1,2013-04-10T12:00:00Z,26.4679,-82.0631,1.74,24.15,2 
SCCF RECON,ioos:station:SCCF:11:1,2013-04-10T13:00:00Z,26.4679,-82.0631,1.74,23.97,2 
SCCF RECON,ioos:station:SCCF:11:1,2013-04-10T14:00:00Z,26.4679,-82.0631,1.74,23.92,2 
SCCF RECON,ioos:station:SCCF:11:1,2013-04-10T15:00:00Z,26.4679,-82.0631,1.74,24.24,2 
SCCF RECON,ioos:station:SCCF:11:1,2013-04-10T16:00:00Z,26.4679,-82.0631,1.74,24.05,2 
SCCF RECON,ioos:station:SCCF:11:1,2013-04-10T17:00:00Z,26.4679,-82.0631,1.74,24.01,2 
SCCF RECON,ioos:station:SCCF:11:1,2013-04-10T18:00:00Z,26.4679,-82.0631,1.74,24.25,2 
SCCF RECON,ioos:station:SCCF:11:1,2013-04-10T19:00:00Z,26.4679,-82.0631,1.74,25.25,2 
SCCF RECON,ioos:station:SCCF:11:1,2013-04-10T20:00:00Z,26.4679,-82.0631,1.74,25.66,2 
SCCF RECON,ioos:station:SCCF:11:1,2013-04-10T21:00:00Z,26.4679,-82.0631,1.74,26.02,2 
SCCF RECON,ioos:station:SCCF:11:1,2013-04-10T22:00:00Z,26.4679,-82.0631,1.74,26.36,2 
SCCF RECON,ioos:station:SCCF:11:1,2013-04-10T23:00:00Z,26.4679,-82.0631,1.74,26.29,2 
SCCF RECON,ioos:station:SCCF:11:1,2013-04-11T00:00:00Z,26.4679,-82.0631,1.74,26.32,2 
SCCF RECON,ioos:station:SCCF:11:1,2013-04-11T01:00:00Z,26.4679,-82.0631,1.74,26.37,2 
SCCF RECON,ioos:station:SCCF:11:1,2013-04-11T02:00:00Z,26.4679,-82.0631,1.74,26.09,2 
SCCF RECON,ioos:station:SCCF:11:1,2013-04-11T03:00:00Z,26.4679,-82.0631,1.74,25.7,2 
SCCF RECON,ioos:station:SCCF:11:1,2013-04-11T04:00:00Z,26.4679,-82.0631,1.74,25.42,2 
SCCF RECON,ioos:station:SCCF:11:1,2013-04-11T05:00:00Z,26.4679,-82.0631,1.74,25.28,2 
SCCF RECON,ioos:station:SCCF:11:1,2013-04-11T06:00:00Z,26.4679,-82.0631,1.74,24.96,2 
SCCF RECON,ioos:station:SCCF:11:1,2013-04-11T07:00:00Z,26.4679,-82.0631,1.74,24.74,2 
SCCF RECON,ioos:station:SCCF:11:1,2013-04-11T08:00:00Z,26.4679,-82.0631,1.74,24.81,2 
SCCF RECON,ioos:station:SCCF:11:1,2013-04-11T09:00:00Z,26.4679,-82.0631,1.74,24.93,2 
SCCF RECON,ioos:station:SCCF:11:1,2013-04-11T10:00:00Z,26.4679,-82.0631,1.74,24.97,2 
SCCF RECON,ioos:station:SCCF:11:1,2013-04-11T11:00:00Z,26.4679,-82.0631,1.74,24.99,2 
SCCF RECON,ioos:station:SCCF:11:1,2013-04-11T12:00:00Z,26.4679,-82.0631,1.74,24.87,2 
SCCF RECON,ioos:station:SCCF:11:1,2013-04-11T13:00:00Z,26.4679,-82.0631,1.74,24.92,2 
SCCF RECON,ioos:station:SCCF:11:1,2013-04-11T14:00:00Z,26.4679,-82.0631,1.74,24.41,2 
SCCF RECON,ioos:station:SCCF:11:1,2013-04-11T15:00:00Z,26.4679,-82.0631,1.74,24.51,2 
SCCF RECON,ioos:station:SCCF:11:1,2013-04-11T16:00:00Z,26.4679,-82.0631,1.74,24.69,2 
SCCF RECON,ioos:station:SCCF:11:1,2013-04-11T17:00:00Z,26.4679,-82.0631,1.74,24.97,2 
SCCF RECON,ioos:station:SCCF:11:1,2013-04-11T18:00:00Z,26.4679,-82.0631,1.74,25.15,2 
SCCF RECON,ioos:station:SCCF:11:1,2013-04-11T19:00:00Z,26.4679,-82.0631,1.74,25.42,2 
SCCF RECON,ioos:station:SCCF:11:1,2013-04-11T20:00:00Z,26.4679,-82.0631,1.74,25.4,2 
SCCF RECON,ioos:station:SCCF:11:1,2013-04-11T21:00:00Z,26.4679,-82.0631,1.74,25.96,2 
SCCF RECON,ioos:station:SCCF:11:1,2013-04-11T22:00:00Z,26.4679,-82.0631,1.74,26.23,2 
SCCF RECON,ioos:station:SCCF:11:1,2013-04-11T23:00:00Z,26.4679,-82.0631,1.74,26.33,2 
SCCF RECON,ioos:station:SCCF:11:1,2013-04-12T00:00:00Z,26.4679,-82.0631,1.74,26.41,2 
SCCF RECON,ioos:station:SCCF:11:1,2013-04-12T01:00:00Z,26.4679,-82.0631,1.74,26.41,2 
SCCF RECON,ioos:station:SCCF:11:1,2013-04-12T02:00:00Z,26.4679,-82.0631,1.74,26.41,2 
SCCF RECON,ioos:station:SCCF:11:1,2013-04-12T03:00:00Z,26.4679,-82.0631,1.74,25.72,2 
SCCF RECON,ioos:station:SCCF:11:1,2013-04-12T04:00:00Z,26.4679,-82.0631,1.74,25.65,2 
SCCF RECON,ioos:station:SCCF:11:1,2013-04-12T05:00:00Z,26.4679,-82.0631,1.74,25.38,2 
SCCF RECON,ioos:station:SCCF:11:1,2013-04-12T06:00:00Z,26.4679,-82.0631,1.74,25.25,2 
SCCF RECON,ioos:station:SCCF:11:1,2013-04-12T07:00:00Z,26.4679,-82.0631,1.74,25.17,2 
SCCF RECON,ioos:station:SCCF:11:1,2013-04-12T08:00:00Z,26.4679,-82.0631,1.74,25.19,2 
SCCF RECON,ioos:station:SCCF:11:1,2013-04-12T09:00:00Z,26.4679,-82.0631,1.74,25.17,2 
SCCF RECON,ioos:station:SCCF:11:1,2013-04-12T10:00:00Z,26.4679,-82.0631,1.74,25.2,2 
SCCF RECON,ioos:station:SCCF:11:1,2013-04-12T11:00:00Z,26.4679,-82.0631,1.74,25.26,2 
SCCF RECON,ioos:station:SCCF:11:1,2013-04-12T12:00:00Z,26.4679,-82.0631,1.74,25.14,2 
SCCF RECON,ioos:station:SCCF:11:1,2013-04-12T13:00:00Z,26.4679,-82.0631,1.74,25.28,2 